Location: Freiburg+im+Breisgau
(48.0359°N, 7.8195°E)
Time: 08:04:24
(UTC+02:00)

Envisat - Visible Passes

Search period start: 21 April 2018 00:00
Search period end: 01 May 2018 00:00
Orbit: 764 x 766 km, 98.2° (Epoch: 20 April)

Date Brightness Start Highest point End Pass type
(mag) Time Alt. Az. Time Alt. Az. Time Alt. Az.
21 Apr 3.8 21:07:14 10° S 21:12:13 55° W 21:17:14 10° NNW visible
22 Apr 5.6 22:11:52 10° SW 22:15:03 16° W 22:18:14 10° NW visible
23 Apr 4.7 21:33:22 10° SSW 21:37:56 33° W 21:42:32 10° NNW visible
25 Apr 5.5 22:00:01 10° SW 22:03:45 20° W 22:07:30 10° NW visible
26 Apr 4.3 21:21:56 10° SSW 21:26:43 41° W 21:31:32 10° NNW visible
27 Apr 5.8 22:27:46 10° WSW 22:29:41 12° W 22:31:36 10° WNW visible
28 Apr 5.2 21:48:21 10° SSW 21:52:29 25° W 21:56:40 10° NW visible
29 Apr 4.0 21:10:35 10° S 21:15:30 51° W 21:20:28 10° NNW visible
30 Apr 5.7 22:15:30 10° WSW 22:18:22 15° W 22:21:16 10° NW visible
